Theta_e
322 322 321 320 320 320 319 320 322 322 322 318 318 320 320 321 322 323 325 326 328 329 326 328 333 331 330 329 330 329 328 331 331 328 330 333 331 328 324 321 321 319 317 314 315 324 327 331 333 333 332 331 330 327 324 319 314 312 313 317 319 318 319 319 323 325 326 328 327 327 328 325 321 324 328 328 328 329 327 327 326 325 326 328 328 327 327 326 325 325 326 326 326 327 327 326 326
322 322 321 320 320 320 319 321 322 320 320 317 318 320 319 321 322 325 326 326 327 327 326 330 332 329 328 328 329 329 329 332 329 330 332 331 330 326 322 321 321 319 317 315 318 325 328 330 332 332 331 330 329 328 324 319 315 313 312 316 320 321 320 316 320 327 328 329 327 328 329 328 326 324 329 329 328 329 327 326 328 328 328 328 329 328 326 326 325 325 326 326 326 326 326 326 325
321 322 321 321 322 320 319 321 321 318 317 316 318 319 319 321 324 325 325 325 326 325 327 331 330 328 328 328 329 328 331 331 327 332 333 332 331 325 322 322 321 320 317 316 317 323 328 328 329 331 330 331 330 328 325 321 316 314 312 314 320 322 324 321 320 324 327 329 327 329 329 329 328 325 329 329 326 327 327 328 329 329 327 326 327 327 325 326 327 326 326 325 325 325 326 325 324
320 321 321 321 322 321 320 322 321 318 316 316 317 319 320 322 325 325 324 325 325 325 329 330 330 328 327 328 328 327 332 331 329 334 333 332 331 323 321 322 321 320 317 316 313 318 326 325 327 329 329 331 330 328 326 321 317 314 311 313 319 324 325 325 324 324 325 326 325 327 329 329 327 324 327 327 326 327 327 327 327 327 326 325 324 325 325 326 326 326 325 325 325 325 325 324 322
318 320 321 321 322 321 321 322 322 319 317 318 318 318 319 321 324 324 325 326 324 325 328 330 331 329 328 329 329 327 332 331 331 334 334 333 329 321 322 322 321 320 318 317 313 315 321 319 323 328 328 331 330 329 326 320 317 313 311 311 316 321 323 326 328 328 325 325 325 326 328 328 326 323 325 326 328 329 327 326 327 327 327 327 323 321 322 323 324 325 325 324 324 323 323 321 320
317 319 320 321 321 320 321 319 320 319 319 320 319 319 318 320 324 325 326 326 324 324 327 330 330 330 331 330 328 327 330 333 331 333 334 332 325 321 322 322 321 321 319 318 315 314 316 315 320 325 328 331 330 329 326 320 317 314 311 309 313 317 319 326 329 329 328 327 325 325 326 327 325 324 325 327 328 327 327 327 328 328 327 326 322 319 319 320 321 323 323 322 322 322 321 321 321
316 319 321 321 320 320 320 318 319 320 320 320 320 319 318 321 324 326 326 326 324 323 325 328 328 328 330 329 329 327 327 334 332 332 334 330 322 322 322 322 322 321 320 318 316 313 313 314 317 322 327 330 330 329 327 324 318 313 311 309 312 314 317 325 328 329 330 327 323 322 325 325 323 322 325 327 327 325 326 326 325 325 324 322 321 320 320 319 320 321 321 321 321 321 322 322 321
316 319 320 322 322 321 320 318 320 320 319 317 318 318 318 320 323 326 326 325 324 323 325 327 326 327 328 328 333 330 326 332 332 331 332 328 322 322 322 322 322 321 320 318 317 314 312 313 316 321 326 329 329 329 328 327 322 316 312 310 310 312 314 319 324 327 329 326 320 318 319 319 319 321 323 325 324 322 321 320 319 319 320 320 319 319 319 320 320 321 321 321 322 322 321 321 320
316 320 320 323 323 321 319 318 320 320 318 317 318 318 316 318 323 327 326 324 323 323 326 327 325 325 327 328 333 332 328 330 330 331 331 327 323 322 323 322 322 321 320 319 318 315 312 312 315 320 324 326 328 329 329 328 326 320 313 310 310 309 311 314 319 324 327 325 319 317 316 316 318 320 321 322 322 320 317 318 317 317 318 318 317 318 319 319 319 320 321 321 321 320 320 319 318
317 320 321 323 322 319 317 317 320 319 318 318 318 317 316 317 322 326 326 324 322 325 326 326 325 324 327 330 332 332 330 330 330 331 331 327 324 323 323 322 322 322 320 319 318 316 312 311 313 318 320 322 327 329 329 327 326 321 313 310 310 309 309 310 314 319 323 322 318 317 317 317 318 318 318 319 319 318 319 319 318 316 316 316 316 317 317 317 318 319 319 319 319 318 317 316 315
319 319 320 322 321 318 316 316 319 319 318 317 317 317 315 317 322 325 325 323 322 325 326 325 325 324 327 329 330 331 329 330 331 331 330 327 324 323 323 322 322 321 320 319 318 317 313 311 312 315 317 318 323 328 328 327 325 322 315 311 310 310 309 309 310 314 316 317 316 316 317 318 319 317 317 317 317 318 320 319 317 316 315 315 315 315 315 316 316 316 316 316 316 315 314 313 313
321 320 321 322 322 320 318 318 319 320 319 317 319 318 315 318 323 324 324 323 322 325 326 325 325 324 326 329 329 328 328 330 331 331 329 327 325 323 323 322 321 321 320 319 318 318 315 311 310 312 314 315 317 324 327 325 324 323 317 311 311 310 309 309 309 310 312 314 316 317 318 318 318 318 317 317 317 318 319 318 316 315 315 315 315 315 315 315 315 315 315 315 314 314 314 314 314
322 321 321 322 321 321 320 320 319 319 320 318 319 319 316 319 324 324 324 323 323 325 326 325 323 323 325 327 327 327 329 331 331 331 330 327 326 324 324 323 322 321 321 320 319 318 316 313 310 310 311 313 313 318 325 324 322 324 318 312 311 310 310 309 309 309 309 312 315 317 318 318 318 318 318 318 317 317 317 317 317 316 316 316 316 316 315 315 315 315 315 315 316 316 316 316 316
321 320 321 321 319 320 319 320 320 319 319 318 318 317 317 320 322 323 323 323 323 324 324 324 323 322 324 324 325 328 329 330 331 332 330 328 327 325 324 323 322 321 321 320 319 319 318 314 311 310 309 311 311 313 318 320 320 324 320 313 312 310 310 310 309 309 309 310 314 316 317 318 318 318 318 318 318 318 318 318 317 317 317 317 318 317 316 316 315 316 316 317 317 318 318 318 317
320 319 320 321 319 319 320 320 319 319 317 317 317 317 318 320 320 321 322 323 323 322 322 323 323 322 324 322 325 328 326 328 331 332 331 330 328 326 325 324 323 322 321 320 319 319 319 316 313 311 310 309 310 312 314 315 315 319 320 314 312 311 310 310 309 309 309 309 312 315 316 317 318 318 318 319 319 319 318 318 318 318 318 318 319 318 318 318 317 317 317 318 318 319 318 318 318
319 320 321 321 320 320 320 319 318 318 317 316 316 317 319 320 319 320 321 322 322 321 322 323 323 322 323 322 323 324 323 327 331 332 332 331 329 328 326 325 324 322 322 321 320 320 319 318 315 311 311 309 309 312 315 317 313 312 317 315 311 311 310 310 309 309 309 308 311 314 315 316 318 318 318 318 318 319 318 319 319 319 319 318 319 319 319 319 319 319 319 319 318 318 318 318 318
318 321 323 322 321 320 320 320 318 317 317 315 315 317 321 320 319 319 319 320 321 320 321 323 322 322 321 321 321 321 323 327 330 331 332 331 330 329 327 326 325 324 322 322 321 320 320 319 317 313 311 310 310 310 314 320 316 309 313 314 311 311 311 311 310 310 309 308 310 312 314 315 317 318 318 318 318 318 318 318 318 318 318 318 319 319 319 319 318 318 318 318 318 318 318 319 319
320 324 325 324 322 320 320 319 318 317 316 315 314 316 320 321 318 318 319 320 321 320 321 321 322 322 321 321 321 321 323 327 329 330 331 332 331 330 329 328 326 325 323 322 322 321 320 319 318 315 312 311 310 309 310 316 315 310 312 312 311 311 311 311 311 310 309 308 309 311 313 314 315 317 318 318 318 318 318 318 318 318 318 318 318 318 318 318 318 318 318 318 319 319 319 319 319
320 323 325 326 322 320 319 318 317 316 316 315 314 314 317 320 319 318 319 320 321 321 322 322 323 323 322 321 322 321 322 326 328 328 330 331 331 331 330 329 327 327 325 323 322 322 321 320 319 317 313 311 310 310 310 311 311 311 311 311 311 311 311 311 311 311 310 309 308 310 312 313 314 316 317 317 317 318 317 318 318 318 318 318 318 318 318 318 318 318 319 319 319 319 319 318 318
317 320 325 325 321 319 317 317 316 315 314 315 315 313 314 318 318 318 319 320 321 321 322 323 324 324 322 322 322 322 322 325 328 327 328 329 330 330 330 329 327 327 327 325 323 322 322 321 320 319 316 312 311 310 310 310 311 311 311 311 312 312 312 311 311 311 310 310 309 309 310 312 312 314 316 316 317 317 317 317 317 318 318 318 318 318 318 318 318 318 318 318 318 318 318 317 318
316 318 322 322 321 319 316 315 314 313 313 313 314 312 314 315 315 317 319 320 321 321 322 322 323 322 321 323 322 322 322 323 327 328 327 327 329 330 330 329 327 327 327 326 324 323 322 321 320 320 318 314 311 311 310 310 311 311 311 312 312 312 311 311 311 311 311 310 310 309 309 310 311 313 314 315 316 316 316 317 317 317 317 317 317 317 317 317 318 318 318 318 317 317 317 317 316
316 317 318 319 320 320 316 313 313 313 313 313 313 313 314 314 315 317 318 320 321 321 321 320 321 320 320 321 322 322 322 322 324 326 326 326 327 329 329 330 329 328 327 325 324 323 322 322 321 320 319 316 312 311 311 310 310 311 311 311 311 311 311 311 311 310 310 310 310 310 309 309 310 311 312 313 314 315 316 316 316 316 316 316 316 316 317 317 317 318 317 317 317 316 316 316 316
319 318 317 318 318 319 317 313 313 313 312 313 313 313 313 314 315 315 317 319 320 319 319 319 319 319 319 320 321 322 321 321 321 322 322 322 323 325 327 329 329 328 326 324 324 324 323 322 322 321 320 318 313 311 312 311 310 310 311 311 311 311 312 313 313 312 311 311 310 310 310 309 309 310 311 312 313 314 315 315 316 316 316 316 316 316 317 317 317 317 317 316 316 316 315 316 316
322 322 319 318 317 317 317 314 315 314 313 313 312 312 312 314 315 314 315 317 318 318 318 318 318 318 318 319 320 321 321 321 320 319 320 321 322 324 326 326 327 326 324 324 324 324 323 323 322 322 321 319 315 312 312 312 311 311 311 311 311 312 315 316 316 316 315 313 312 311 310 310 310 310 310 311 311 312 313 314 315 315 315 316 316 316 317 317 317 316 316 315 315 315 315 316 316
320 323 320 319 317 316 316 315 316 314 313 313 312 313 314 314 314 313 314 316 317 317 317 317 317 318 318 318 319 320 321 321 320 320 320 321 324 327 329 327 325 324 323 323 323 323 324 323 323 322 321 320 318 314 312 313 313 313 312 312 313 315 317 318 318 319 319 318 316 314 312 311 311 311 310 311 311 311 311 312 313 314 314 314 315 315 315 316 316 315 315 315 315 315 316 316 317
317 318 317 317 316 315 315 315 315 314 313 313 313 314 314 312 312 313 315 315 315 316 317 317 317 318 318 318 318 318 320 320 320 320 320 322 326 328 328 326 323 323 322 322 323 324 324 324 324 323 322 321 320 316 313 313 314 314 314 314 316 318 319 319 319 320 320 320 320 319 317 316 314 313 312 312 312 312 311 312 312 312 313 313 314 314 314 314 314 315 315 315 315 315 316 317 318
316 316 316 316 316 314 314 315 314 313 314 314 314 314 313 311 312 315 316 316 315 315 316 316 317 317 317 318 318 318 319 319 320 320 321 323 325 326 324 324 322 322 324 323 322 323 324 324 324 323 323 322 322 319 315 313 314 315 315 317 317 318 319 319 320 320 320 320 321 321 321 320 319 318 317 316 316 315 315 314 313 313 313 313 313 313 314 314 314 315 315 315 315 316 317 318 319
315 315 316 315 315 315 314 314 315 314 315 314 313 314 312 311 312 315 317 316 315 315 315 316 317 317 317 317 318 318 318 319 320 321 321 321 321 320 321 322 320 321 323 322 321 323 323 324 324 324 323 323 323 321 318 315 315 316 316 317 318 319 319 320 320 320 321 321 321 321 322 321 321 321 321 321 320 320 319 319 318 316 315 315 315 315 315 315 315 316 316 317 317 318 319 320 320
313 314 317 316 314 315 315 315 315 315 316 314 312 315 314 312 313 315 316 315 315 315 315 315 316 316 317 317 317 318 318 319 320 320 320 319 319 319 319 319 318 319 321 321 321 321 322 323 324 324 324 324 323 323 321 318 315 316 317 318 319 319 320 320 321 321 321 322 322 322 322 322 322 322 322 322 322 322 322 321 321 320 319 319 319 319 319 318 318 318 318 319 319 319 320 321 321
314 314 316 318 318 320 317 315 314 314 316 313 313 320 321 316 315 316 315 315 315 315 315 315 316 316 316 317 317 317 317 318 319 318 318 319 319 319 318 318 319 319 319 320 320 318 319 321 323 323 323 323 323 323 323 321 318 316 317 319 320 320 321 321 321 322 322 322 322 322 322 322 322 322 322 322 322 322 322 322 322 322 321 321 321 321 321 321 320 320 320 320 320 320 320 321 321
316 316 316 318 322 324 316 313 314 314 314 312 314 320 323 319 316 316 315 315 314 315 315 315 315 315 316 316 316 316 317 317 317 317 318 318 318 318 318 318 319 319 319 319 318 317 318 320 321 322 322 322 322 323 323 322 321 318 317 318 320 321 321 322 322 323 323 323 323 324 323 322 322 322 322 322 322 322 322 322 322 322 322 322 322 321 321 321 321 321 321 320 321 321 321 321 321
315 319 320 318 321 324 317 313 314 315 313 311 314 320 321 320 318 316 314 314 313 314 316 315 315 314 315 315 315 316 316 316 317 317 317 318 317 318 317 317 317 318 318 318 318 317 318 319 320 321 321 322 322 322 322 322 322 321 318 317 318 320 321 322 322 324 324 325 325 325 324 323 323 323 323 323 322 323 323 323 322 322 322 322 322 322 321 322 321 321 321 321 321 322 323 322 322
314 319 322 319 320 323 320 314 312 314 313 311 314 319 320 318 317 315 314 313 313 314 315 315 314 314 314 314 314 315 315 316 316 317 317 317 316 316 316 316 316 316 317 318 318 318 318 318 319 320 321 321 321 321 321 321 321 322 321 319 318 319 320 321 321 322 324 325 326 325 325 325 324 324 324 324 324 324 324 324 323 323 322 322 322 322 322 322 322 322 322 322 322 323 323 323 323
316 317 321 320 318 319 320 317 312 312 313 312 313 315 318 319 317 315 313 313 312 313 314 315 314 314 314 314 314 314 315 315 315 315 316 315 315 315 316 316 315 315 315 316 317 317 318 318 318 320 321 321 321 321 321 320 320 321 321 320 319 318 319 319 320 321 322 323 324 324 325 325 325 325 325 325 324 324 324 325 325 324 324 324 324 324 323 323 323 323 323 323 323 323 323 323 323
318 320 322 321 317 316 319 319 314 311 312 314 313 313 315 316 317 316 315 313 312 312 314 314 314 313 313 314 314 314 314 314 315 314 314 314 315 315 315 315 315 315 315 315 316 316 317 318 318 319 320 320 321 321 321 321 321 321 320 320 320 318 318 318 318 320 320 322 323 323 324 324 325 325 325 325 325 324 325 325 325 325 325 325 324 324 324 324 323 324 323 323 323 323 323 323 323
321 322 323 323 321 319 318 317 313 311 312 313 314 314 314 315 315 316 316 314 313 313 313 313 314 313 313 314 314 314 314 315 315 315 314 314 314 315 315 315 315 315 315 315 315 316 316 316 317 318 319 320 320 320 320 321 321 321 320 319 319 318 318 317 317 318 319 321 322 323 324 324 324 324 325 325 325 325 325 326 326 326 325 325 324 324 324 324 323 323 323 323 322 322 322 322 321
322 321 322 322 322 322 318 314 311 310 313 315 315 315 315 315 315 316 317 315 312 313 314 313 313 314 315 315 314 314 315 315 315 315 314 314 314 314 315 315 315 315 315 315 315 315 315 315 316 316 317 318 319 319 319 319 320 319 319 318 317 317 317 317 317 317 318 320 322 324 325 325 324 324 324 324 325 325 325 326 326 326 326 324 324 324 323 323 323 323 322 322 322 322 322 321 320
319 319 320 320 320 321 317 313 310 309 312 316 315 314 314 315 315 315 316 315 313 313 314 314 314 314 315 316 316 315 316 316 315 315 315 315 314 314 314 314 315 315 314 315 314 314 315 314 314 315 315 316 317 317 318 318 318 317 317 317 316 316 316 317 317 317 318 319 320 322 324 324 323 323 323 323 324 325 326 327 327 326 326 325 325 324 324 323 323 322 322 322 321 321 322 321 320
317 318 319 320 319 318 317 313 310 310 312 316 315 313 314 315 315 315 315 314 314 314 313 314 314 314 315 315 316 316 316 316 316 316 315 315 315 314 314 314 314 314 314 314 314 314 315 315 314 314 314 314 315 316 316 316 316 317 317 317 317 316 316 317 317 317 318 319 319 320 321 321 321 321 322 322 324 325 326 327 327 326 326 326 326 325 324 323 323 323 323 322 321 321 321 321 320
317 318 318 320 318 318 321 315 310 310 311 313 313 312 314 315 315 314 314 314 314 314 313 313 313 313 314 314 315 315 315 317 317 317 316 315 315 315 314 315 314 314 314 314 315 314 314 315 314 314 314 313 314 314 315 315 315 316 317 318 318 318 318 318 319 318 318 318 318 319 319 320 320 321 321 322 323 324 325 326 327 326 326 326 326 325 324 324 323 323 323 322 322 321 320 320 320
317 317 319 321 317 317 320 315 311 311 311 310 311 314 316 316 317 317 317 315 313 313 313 312 313 312 313 313 314 315 315 317 318 318 317 316 315 316 315 315 315 314 315 314 314 314 314 314 314 314 314 313 313 313 313 314 314 315 316 317 318 319 319 319 320 319 318 317 318 318 319 320 321 321 322 323 323 324 325 327 327 327 326 326 325 325 325 324 324 323 323 322 321 321 321 320 320
318 316 317 319 318 316 316 313 314 318 318 312 311 319 321 317 317 318 318 316 314 314 314 313 313 313 313 313 313 315 316 316 317 318 318 317 316 316 315 315 315 314 315 315 315 314 314 313 313 313 313 313 313 313 313 313 314 314 315 316 316 317 317 318 318 318 317 317 317 317 318 319 320 321 323 323 323 324 324 325 327 327 326 325 325 324 324 325 326 324 322 322 321 321 321 321 320
320 317 315 316 317 317 315 314 317 322 321 313 310 318 321 316 316 316 316 315 314 314 314 313 313 313 313 313 314 315 315 316 317 317 318 317 316 316 315 315 315 315 315 315 315 315 314 314 314 313 313 313 313 313 313 313 313 313 313 314 314 315 315 316 316 316 316 316 317 317 318 318 319 321 322 323 323 323 323 323 326 328 326 325 324 323 323 324 323 324 323 321 320 321 322 321 321
321 316 314 314 315 316 315 315 317 318 316 312 311 313 314 314 315 315 314 314 314 314 314 314 314 313 313 313 314 315 315 316 316 317 317 317 317 316 316 316 316 316 315 315 315 315 315 314 314 314 313 313 313 313 313 313 313 313 313 313 313 313 314 314 315 315 316 316 316 317 318 319 320 321 321 322 322 323 323 322 324 327 328 328 324 322 325 325 322 325 325 321 321 322 322 321 320
316 312 312 313 314 315 314 314 315 314 313 316 315 312 315 317 315 314 314 314 315 315 314 315 315 314 313 313 314 315 315 316 316 317 317 317 317 317 317 316 315 315 315 315 315 315 315 315 315 314 314 314 313 313 313 313 313 313 313 312 312 312 312 313 314 314 315 316 316 317 318 318 320 321 321 322 322 322 323 323 322 323 326 329 327 325 329 328 324 326 325 323 323 323 322 321 320
311 310 312 313 313 313 313 313 314 313 315 319 317 313 317 321 317 314 314 313 315 316 315 316 316 315 314 313 314 316 316 316 316 316 317 316 317 317 317 316 316 315 315 315 315 315 315 315 315 315 314 314 314 313 313 313 313 313 313 313 312 312 312 313 313 313 314 314 315 316 317 318 318 320 321 322 322 322 323 323 323 322 323 325 325 326 329 328 326 326 323 323 325 324 322 321 320
310 310 312 312 312 312 312 313 313 316 319 320 317 314 315 320 319 316 316 314 314 316 316 316 316 316 316 314 315 316 315 316 316 316 317 317 317 316 317 316 316 316 315 315 315 315 315 315 315 314 314 314 314 314 313 313 313 313 313 313 312 312 312 312 312 313 313 313 314 314 316 316 316 318 319 320 321 322 322 322 323 323 323 323 323 324 325 323 326 329 325 324 325 323 322 321 321
311 312 313 313 312 312 313 312 312 319 323 317 313 312 314 319 319 316 317 315 313 315 316 316 316 316 315 315 315 316 315 315 315 316 316 317 317 316 316 316 316 315 315 315 315 315 315 315 315 314 314 314 314 313 313 313 313 313 313 313 313 312 312 312 312 312 312 313 313 313 314 315 315 316 317 318 320 320 321 323 324 324 324 323 323 323 321 320 325 328 325 325 326 324 321 320 320
312 312 315 317 315 315 317 315 313 319 320 311 308 310 313 317 318 315 315 315 314 314 314 315 316 316 315 315 315 315 315 315 314 315 315 315 315 315 314 315 315 314 314 315 314 314 315 315 315 315 315 314 314 314 314 313 313 313 313 313 313 313 312 312 312 312 312 312 312 313 314 315 315 315 315 316 317 319 322 324 325 325 325 324 323 322 320 320 323 324 324 326 326 323 321 320 319
311 313 318 319 316 319 322 318 315 318 315 307 307 310 313 316 316 315 314 314 315 313 312 313 313 314 314 314 314 313 313 314 314 314 314 314 314 314 313 313 313 313 314 314 314 314 314 314 314 315 315 314 314 314 313 313 313 313 313 313 313 313 312 312 312 312 312 312 312 313 313 314 314 315 315 316 318 320 324 326 326 326 326 325 323 322 321 321 321 321 322 324 323 321 321 321 320
312 314 318 319 317 320 323 320 319 319 313 307 307 312 317 317 315 313 312 313 312 311 311 311 311 311 311 312 312 312 312 312 312 313 313 313 313 313 313 313 313 314 313 313 314 314 314 313 314 314 314 314 314 314 314 314 313 313 313 313 313 313 313 313 313 313 313 313 313 313 314 315 315 316 317 318 321 324 326 327 327 327 326 325 324 322 322 322 321 320 321 324 324 322 322 321 321
313 315 317 319 317 316 316 315 314 314 313 310 309 313 316 315 313 312 312 312 311 311 311 310 310 311 310 311 311 312 312 312 311 312 312 313 313 313 313 314 314 314 314 314 313 313 314 313 314 314 313 314 313 313 313 313 313 313 313 313 313 314 313 314 314 314 314 314 315 315 316 316 317 318 320 321 324 326 327 328 328 327 326 325 324 323 323 322 321 320 322 325 324 324 323 322 322
313 315 316 316 315 312 312 311 308 309 315 315 311 312 313 313 314 314 314 314 313 312 311 310 310 310 310 311 312 313 313 312 312 312 312 313 313 313 313 313 314 314 314 314 314 314 314 314 314 314 313 313 313 312 313 313 313 313 313 313 313 313 314 314 314 314 315 315 316 317 318 319 320 322 323 324 326 327 327 328 328 327 326 325 324 324 323 323 322 320 321 322 323 324 324 322 322
313 315 314 314 313 312 312 312 309 310 316 316 312 313 314 315 317 315 313 314 314 314 314 312 311 310 310 311 313 313 313 314 314 314 314 314 313 313 313 313 313 313 313 313 314 314 313 314 314 313 313 313 312 312 312 313 313 313 313 313 313 313 314 314 314 315 315 316 317 318 319 321 321 323 325 326 327 327 327 327 328 328 327 325 325 324 323 323 322 320 319 320 321 323 322 321 321
312 315 314 315 316 316 313 312 312 312 314 315 312 310 311 314 316 314 312 312 313 313 314 314 313 312 311 312 313 313 313 314 314 313 314 314 313 313 313 313 313 313 313 313 313 314 314 314 313 313 313 312 312 312 312 313 313 313 313 313 313 313 313 314 314 315 316 316 317 318 320 321 322 324 326 326 326 327 327 327 328 328 327 326 325 324 322 322 321 321 322 322 319 320 322 322 321
309 312 314 314 315 317 315 312 313 314 315 316 314 312 312 314 314 314 314 313 312 313 313 314 315 314 314 313 313 313 312 312 312 312 313 313 313 313 312 313 312 312 313 313 313 314 314 314 313 313 312 312 312 312 312 313 313 313 313 313 313 312 313 313 314 315 316 317 317 318 320 322 323 324 326 326 326 326 327 327 327 328 327 327 325 323 322 322 321 320 323 323 321 322 324 322 319
309 312 314 313 311 313 315 313 312 314 315 315 316 316 315 314 312 312 314 314 314 315 314 315 316 315 314 313 312 312 312 312 312 312 313 312 313 313 312 312 312 312 313 313 312 313 313 313 313 313 313 313 313 313 313 313 313 313 313 313 313 313 312 313 313 315 316 316 317 319 320 322 323 324 325 325 325 326 326 327 328 327 326 326 325 323 322 322 321 320 320 322 323 324 324 321 319
311 313 314 314 313 312 316 317 312 311 313 312 313 316 317 315 311 311 313 314 314 315 315 316 316 313 312 312 311 311 311 312 312 312 312 312 312 313 312 312 312 312 313 312 313 313 313 313 313 313 313 313 313 313 313 314 313 314 313 313 313 312 312 312 313 314 315 316 318 319 320 321 323 323 325 325 325 324 325 326 328 328 327 325 323 322 323 322 321 321 320 322 324 323 321 320 320
Wind_Speed
4 4 4 3 7 8 5 5 1 2 1 2 2 1 3 1 1 3 6 5 4 6 4 5 12 10 4 1 1 3 4 0 2 2 2 10 21 22 19 19 17 14 13 13 16 15 13 13 13 11 9 7 5 5 5 6 5 5 5 7 8 9 10 10 10 11 11 11 11 12 12 11 12 13 13 13 13 13 13 14 15 16 16 17 18 18 18 17 16 16 16 16 17 18 18 19 19
4 4 2 2 6 6 3 4 2 1 1 2 2 0 3 3 3 5 8 6 3 7 8 8 13 8 1 0 2 1 2 0 2 3 6 19 24 22 21 20 17 15 13 13 14 14 13 12 13 11 9 7 6 5 5 5 5 4 4 7 9 10 10 11 11 10 11 12 11 12 12 12 12 13 15 14 13 14 15 16 16 16 16 16 17 17 18 18 16 16 15 16 16 16 17 17 16
4 3 2 1 4 5 2 2 1 1 1 2 3 2 3 4 5 5 6 3 5 10 10 10 11 5 1 2 3 1 2 2 3 6 12 22 22 22 23 20 18 15 13 13 13 13 13 13 13 12 10 8 6 5 5 5 4 4 5 7 10 11 11 11 12 11 12 12 11 12 13 12 12 14 15 13 13 14 16 16 16 16 16 16 16 16 18 18 16 15 14 15 15 15 15 15 15
3 3 1 1 2 2 1 1 0 1 0 1 2 4 4 4 5 5 6 5 8 11 10 12 9 4 3 1 1 1 3 4 5 7 15 21 19 23 25 21 20 16 14 12 13 13 12 14 13 12 10 8 6 5 4 4 4 5 5 8 11 11 11 11 12 12 12 12 12 14 14 12 12 14 15 14 15 15 16 16 15 16 16 15 15 16 16 17 16 15 14 14 14 14 14 14 14
2 1 2 2 2 1 1 0 0 2 1 1 2 4 4 4 5 6 7 8 12 9 7 12 5 4 4 2 1 0 3 6 6 8 14 18 20 25 25 22 20 16 14 13 14 13 12 14 13 12 11 9 7 5 4 4 5 5 5 7 10 11 12 13 12 12 11 11 12 14 14 13 12 14 15 16 16 16 15 16 16 16 16 15 15 15 15 15 16 16 14 14 13 13 13 13 14
2 1 1 1 1 2 1 2 1 1 3 1 2 4 2 5 6 9 10 9 10 6 8 10 3 5 3 2 4 1 5 6 6 9 12 18 24 25 24 22 20 17 14 13 13 13 13 14 13 13 11 9 7 6 5 4 5 6 6 6 8 12 14 14 14 12 10 9 10 13 14 13 12 14 15 16 15 15 16 16 16 16 15 15 15 15 15 15 16 16 15 14 13 13 13 13 13
1 1 2 3 3 1 2 2 1 1 2 1 2 4 2 6 8 12 12 8 6 4 9 9 4 5 2 3 3 3 9 7 7 11 14 21 25 24 23 22 20 18 15 13 13 13 13 14 14 13 12 10 8 7 5 5 6 6 6 7 8 11 14 15 15 13 10 8 9 11 13 13 12 13 15 15 14 14 15 15 15 15 14 15 15 15 15 15 15 15 14 14 14 13 13 12 12
2 1 1 2 1 1 1 1 1 1 2 1 2 2 3 7 10 13 12 8 5 5 9 9 7 5 2 4 2 5 11 9 10 13 17 24 25 24 23 22 20 18 15 13 12 12 13 14 14 13 12 11 9 8 6 5 6 6 6 7 8 10 13 15 15 14 11 8 9 10 11 11 12 13 14 14 14 14 14 14 14 15 15 15 16 16 15 15 15 15 14 14 13 12 12 11 11
3 1 2 2 1 1 1 1 1 1 1 2 3 2 1 6 10 11 11 5 4 7 8 9 9 5 3 6 2 5 9 9 13 14 20 25 25 24 23 22 20 18 15 13 12 12 12 14 14 13 12 11 9 8 7 6 5 5 7 8 9 10 11 13 14 14 12 10 10 10 10 10 11 12 13 13 13 14 14 14 15 15 15 15 15 15 15 15 14 14 14 13 12 11 11 10 10
4 2 1 1 1 2 2 2 1 1 1 1 3 4 3 8 11 10 11 6 5 7 7 9 8 4 4 5 3 4 8 11 15 16 22 25 25 24 23 22 19 17 15 13 12 12 12 13 15 14 13 11 10 9 7 6 4 4 7 8 9 10 10 11 11 12 12 11 11 11 10 10 11 12 12 12 12 13 14 14 15 15 15 15 15 15 14 14 14 13 13 12 11 11 11 10 10
3 2 1 2 2 2 2 1 2 1 1 1 4 5 5 10 12 8 8 5 5 6 8 11 6 5 5 3 4 6 10 14 16 20 24 25 25 24 23 22 19 17 15 13 11 11 12 13 15 15 14 13 11 10 8 6 4 5 7 8 9 9 10 10 10 11 11 11 12 11 10 10 11 11 11 11 12 12 13 14 14 15 15 15 14 14 14 14 13 13 12 12 11 11 11 11 11
1 1 2 3 2 1 1 1 0 1 1 2 1 4 7 11 12 10 10 7 7 6 8 11 4 6 6 2 5 8 13 15 17 23 24 25 24 23 23 21 20 17 14 13 11 11 11 12 15 15 15 14 12 11 9 7 5 5 8 8 8 9 10 10 9 10 10 11 11 11 10 10 11 11 11 11 11 12 12 13 14 14 14 14 13 13 14 13 13 13 12 12 12 11 11 11 12
1 1 2 2 0 0 1 1 1 2 2 1 2 2 7 13 12 12 13 8 9 7 8 12 5 5 4 2 6 10 14 16 19 23 23 24 24 23 23 22 20 18 15 14 12 11 11 12 14 15 15 15 14 12 10 8 7 6 7 7 8 9 10 10 9 9 9 10 11 11 11 11 11 11 11 11 11 11 11 12 13 13 13 13 13 12 12 13 13 12 12 12 12 11 11 11 11
2 2 2 1 0 0 1 1 0 2 0 3 3 2 7 9 8 9 12 9 9 7 7 13 9 4 4 3 6 12 15 18 22 23 23 24 23 23 22 22 21 19 17 15 13 12 11 11 12 14 15 15 15 13 11 10 8 7 7 7 8 8 9 9 9 9 8 9 11 11 11 11 10 10 11 11 11 11 10 10 11 11 12 12 12 11 11 12 12 12 12 11 11 11 11 11 11
4 3 0 1 2 1 2 0 1 1 1 4 3 3 6 5 5 8 10 8 7 8 7 12 12 4 2 3 4 12 17 20 24 23 23 23 22 23 21 22 22 20 18 16 14 13 12 11 11 13 15 16 15 14 13 11 10 8 8 7 7 8 8 9 8 8 8 9 10 11 11 10 10 10 10 10 10 10 10 9 9 9 10 10 10 10 11 11 11 11 11 10 10 10 10 10 10
7 4 0 2 2 2 2 1 1 1 2 4 2 4 5 4 5 7 9 7 4 9 9 9 14 6 0 2 2 11 18 21 25 24 23 23 23 23 22 22 21 21 20 18 17 14 13 11 11 12 14 15 15 15 13 12 12 9 9 8 8 8 8 8 8 8 8 9 9 10 10 10 9 9 9 9 9 9 8 8 8 8 8 8 9 9 10 10 10 10 9 9 8 8 8 8 8
8 4 2 3 3 3 3 3 2 1 3 5 2 4 5 3 6 7 7 8 5 9 12 9 14 10 3 4 4 11 19 22 26 26 26 25 25 24 23 24 23 23 22 20 19 16 15 13 12 12 13 14 14 14 13 13 12 10 10 9 9 9 9 9 8 8 9 9 9 10 10 10 9 9 9 8 7 7 7 7 7 6 6 7 7 8 8 8 8 8 8 7 7 6 6 6 6
6 3 4 3 3 3 3 2 1 1 3 4 3 3 6 3 5 7 5 7 7 8 12 11 12 13 8 6 5 12 20 24 27 27 28 27 27 27 25 25 25 24 24 22 21 19 17 15 13 12 12 14 14 14 14 14 12 11 11 10 9 9 9 9 8 8 9 9 9 10 10 10 9 9 8 8 7 6 5 5 5 5 4 5 6 6 6 6 6 6 6 5 5 5 4 4 5
3 2 4 4 3 3 2 2 1 0 3 5 4 1 6 5 4 7 7 7 8 8 11 11 11 14 14 9 7 12 20 25 28 28 29 29 29 29 28 27 26 25 24 24 23 21 19 16 14 13 12 13 14 14 14 14 13 12 12 11 10 10 10 9 9 9 9 9 9 10 10 10 10 9 9 8 7 6 5 4 4 3 3 3 3 4 4 4 4 4 4 4 4 4 4 4 4
1 2 5 3 3 4 2 1 2 1 3 5 5 2 5 7 6 7 7 6 8 11 11 11 13 17 19 15 11 12 20 26 28 29 29 30 30 30 29 28 28 25 22 23 24 23 21 19 16 14 13 13 14 14 15 14 14 13 13 12 11 11 10 10 10 10 10 10 9 9 10 10 9 9 9 8 7 7 6 5 4 4 3 2 2 2 2 2 3 3 3 2 3 3 3 3 3
2 2 2 2 3 4 4 3 4 2 4 4 4 3 4 5 8 9 7 6 8 14 16 15 16 19 20 20 17 14 20 26 28 30 30 30 30 30 29 28 28 25 22 23 25 24 22 20 18 16 14 13 14 14 15 15 15 14 14 13 12 12 11 11 10 10 10 10 10 10 9 9 9 9 9 9 8 8 7 6 6 5 4 3 3 2 2 1 1 1 1 1 1 2 2 2 2
4 2 1 3 3 3 5 4 3 4 5 4 3 3 4 3 7 11 10 10 6 7 14 17 17 18 18 19 20 18 19 25 29 31 31 31 30 30 29 27 26 25 24 25 25 24 22 21 19 18 16 14 14 15 15 15 15 15 14 14 13 13 12 11 11 10 11 10 10 10 10 10 9 9 9 9 9 8 8 8 7 6 5 4 4 3 3 2 2 1 1 1 0 1 1 2 2
3 2 1 3 5 3 4 5 1 5 5 4 3 4 5 4 6 9 15 18 11 6 7 10 13 16 17 17 20 20 20 23 26 29 30 31 30 31 29 27 26 26 26 26 25 24 23 22 20 19 17 16 15 15 16 15 16 15 15 15 14 14 13 12 11 11 11 11 11 11 10 10 10 10 9 9 9 9 9 8 8 7 6 5 5 4 4 4 3 3 3 2 2 2 2 2 2
4 2 2 3 4 4 4 4 5 6 5 5 4 6 5 5 5 6 15 23 20 16 10 6 8 11 15 17 20 21 21 21 22 25 28 30 30 29 28 27 27 27 28 27 26 25 24 23 21 20 19 17 16 16 16 16 16 16 16 16 16 15 14 12 12 11 11 11 11 11 11 11 11 11 10 10 9 9 9 9 8 7 7 6 6 5 5 5 5 4 4 4 4 4 4 4 4
6 4 3 3 3 5 7 8 8 6 5 5 5 7 5 7 7 7 17 23 22 23 17 11 8 8 13 17 19 21 22 21 21 24 27 29 29 26 26 26 27 28 29 28 27 26 25 24 22 21 20 18 17 17 17 18 17 17 17 17 16 16 15 14 13 12 12 11 11 11 11 11 11 11 11 10 10 9 9 9 9 8 8 8 7 7 6 6 6 6 5 5 5 5 5 5 5
7 6 3 3 2 3 5 7 7 5 4 5 6 6 5 6 6 9 18 20 19 22 21 18 14 11 12 14 18 21 22 22 22 23 25 26 26 25 26 27 29 30 29 29 28 27 25 24 24 22 21 19 18 18 18 19 19 18 18 17 17 16 16 15 15 14 13 12 11 11 11 10 10 10 10 10 10 9 9 9 9 9 9 9 9 8 8 8 7 7 7 6 6 6 7 7 7
4 7 5 4 4 4 4 6 7 8 8 7 7 5 3 2 4 6 8 9 12 17 20 22 20 17 15 14 16 19 21 22 22 22 23 24 24 25 27 27 29 29 29 30 29 28 27 25 24 23 22 21 21 20 20 20 19 19 18 18 17 17 16 16 16 15 14 13 12 12 11 11 11 11 10 10 10 9 9 9 9 9 9 10 10 10 9 9 8 8 8 7 7 8 8 8 8
3 5 5 5 6 8 8 8 9 9 7 6 6 5 3 4 4 9 10 9 9 12 18 21 22 21 19 17 17 18 21 22 23 24 25 26 24 25 26 25 27 28 28 30 29 28 28 27 26 24 23 23 23 22 21 21 20 20 19 19 18 18 17 17 17 16 15 14 14 13 12 12 12 11 11 10 10 9 9 9 9 9 10 10 10 10 10 9 9 9 9 9 9 9 9 10 10
3 3 2 2 3 8 11 11 10 10 7 6 4 5 7 7 10 13 12 11 8 10 16 19 22 23 22 21 20 20 21 23 24 26 27 25 23 24 25 24 25 26 26 28 28 28 29 28 27 26 25 24 24 23 22 22 21 21 21 20 19 19 19 19 18 17 16 16 15 15 14 14 13 13 12 12 11 11 11 11 10 10 10 11 11 11 10 10 10 10 10 10 10 11 11 11 11
4 2 2 1 3 6 7 8 8 9 7 7 6 7 8 9 15 15 11 11 8 10 15 19 21 22 22 22 22 22 22 24 24 25 26 24 23 23 24 23 24 25 24 26 27 27 27 28 28 27 26 26 25 25 24 23 23 22 22 22 21 20 20 20 19 18 18 17 17 17 17 16 16 15 15 14 14 14 14 13 13 13 13 12 12 12 12 11 11 12 12 12 13 13 13 13 14
4 3 1 2 3 1 4 5 8 8 6 9 8 7 8 7 10 11 12 15 12 13 15 18 20 20 22 22 23 24 23 24 23 24 25 23 23 24 24 23 24 25 25 26 26 25 26 27 28 28 27 26 26 25 25 25 24 24 24 24 23 22 22 21 20 20 19 19 18 18 18 18 18 17 17 17 16 16 16 16 15 15 15 15 15 14 14 13 13 14 14 14 14 14 14 15 15
4 3 3 3 4 3 3 6 9 7 4 10 9 6 8 10 10 9 11 14 14 15 15 16 20 20 21 22 22 23 24 25 24 25 26 24 24 25 25 24 24 24 25 25 24 25 27 27 27 28 27 27 26 26 25 25 25 25 26 25 25 24 24 23 22 21 21 20 20 20 19 18 18 18 18 18 18 17 17 17 17 17 18 17 17 16 16 15 15 16 16 16 15 11 11 13 14
3 3 3 4 6 5 1 5 7 5 3 9 11 7 6 6 8 9 11 14 15 16 16 17 20 20 21 22 22 23 24 26 26 27 27 25 25 25 25 24 23 22 23 24 23 24 27 27 27 28 28 27 26 26 25 25 26 26 27 27 27 27 26 25 24 23 23 22 22 22 21 20 19 19 19 19 19 19 18 18 17 18 19 19 18 18 17 17 17 17 17 18 17 14 11 12 13
4 3 3 5 6 5 3 3 4 5 4 8 12 10 11 10 8 8 9 13 15 16 19 18 19 21 22 22 23 23 24 26 27 26 25 24 23 24 25 24 22 22 22 24 24 25 26 26 27 28 28 28 27 27 26 26 26 27 27 28 28 29 29 28 27 26 25 25 24 24 23 22 21 21 21 20 20 20 19 18 19 19 19 19 19 18 18 18 18 18 17 18 19 18 14 13 13
8 7 6 6 6 6 7 3 2 4 5 8 10 11 15 16 15 15 13 13 14 16 18 17 17 19 21 22 24 24 25 27 26 24 23 23 23 24 25 25 23 23 23 24 25 26 26 27 27 28 29 29 29 29 27 27 28 28 28 29 30 30 31 31 30 29 28 27 27 26 25 24 24 23 23 22 22 21 20 20 20 20 20 20 19 18 18 18 18 18 18 18 19 19 18 16 16
15 13 10 7 7 7 6 3 2 2 4 7 11 12 14 15 16 19 20 16 17 17 16 17 19 19 18 20 22 24 25 26 25 24 23 24 25 25 25 26 25 25 24 25 26 27 28 28 28 29 30 30 31 30 30 30 30 30 30 30 32 32 32 32 32 32 31 30 29 28 27 26 26 25 25 24 23 22 21 20 20 20 20 21 20 19 18 18 17 17 17 17 18 18 17 17 16
14 10 9 7 6 7 4 1 2 1 5 8 10 12 14 16 15 18 20 14 14 16 16 18 22 24 23 23 22 23 23 23 23 23 24 26 27 27 26 27 27 27 27 28 28 27 28 29 29 30 30 31 33 34 33 34 33 32 32 33 33 33 33 33 34 34 33 32 31 30 29 28 28 28 27 25 25 24 22 21 21 21 20 20 19 18 17 17 17 17 16 16 17 17 15 14 13
10 7 7 6 6 7 3 1 2 3 4 8 8 9 14 16 15 16 18 13 12 17 18 18 21 24 27 27 27 26 24 23 22 21 22 25 28 28 28 28 28 28 29 29 29 28 27 28 29 30 30 33 35 35 35 35 35 34 33 34 33 33 33 34 35 34 34 34 33 31 31 30 30 30 29 27 26 25 23 23 23 22 21 20 19 19 17 17 17 16 15 14 15 17 15 13 12
8 6 6 6 6 5 5 4 3 3 4 7 7 8 13 17 15 15 16 17 18 19 20 21 21 20 22 26 29 29 27 26 24 22 21 23 26 28 29 30 30 30 30 30 30 30 29 30 30 29 30 33 35 36 37 37 36 35 34 33 33 33 33 34 34 34 34 34 33 33 32 31 31 31 31 29 28 27 26 25 24 23 22 21 20 20 18 17 17 16 16 15 14 15 16 16 15
8 7 7 6 5 6 6 4 4 4 3 6 8 8 12 15 14 14 18 21 20 20 23 26 27 23 22 27 30 29 29 29 28 26 24 24 25 26 28 30 31 32 32 31 32 32 33 33 32 31 31 33 35 36 37 37 36 35 34 34 34 33 33 33 34 34 34 34 34 34 33 32 33 33 32 30 29 28 27 25 25 24 22 21 21 20 19 18 17 16 16 16 15 15 15 16 17
9 9 10 7 7 10 6 1 1 3 3 2 7 10 10 12 14 14 15 17 17 19 22 24 29 31 30 32 34 33 34 34 33 30 28 28 28 28 28 28 29 32 33 34 33 33 34 33 32 32 32 32 34 34 34 34 35 36 36 35 35 36 36 36 36 37 35 35 35 35 34 34 34 34 33 31 30 29 27 26 25 24 23 22 22 22 21 19 18 17 16 17 17 15 13 13 15
9 10 11 9 8 9 5 2 1 5 5 2 2 8 6 5 10 11 9 9 11 15 16 18 26 33 34 35 36 37 37 36 36 34 32 30 30 30 29 29 29 30 32 34 34 33 33 33 32 32 32 33 33 33 32 32 34 36 37 38 39 39 40 40 40 39 37 35 36 35 35 35 35 34 32 31 31 30 29 27 25 24 24 23 23 23 22 21 21 19 16 17 18 14 11 12 13
7 9 11 12 9 7 6 4 3 5 4 1 2 7 6 3 8 9 7 8 9 10 12 16 23 29 33 35 35 36 36 35 36 35 34 32 31 30 29 29 30 30 31 33 35 35 34 34 34 33 33 33 34 33 32 32 33 35 37 39 41 41 41 42 41 39 37 36 35 35 35 35 35 33 32 31 31 30 30 28 26 26 25 23 21 20 20 19 21 19 14 14 16 13 12 13 12
4 7 12 12 10 9 8 6 6 3 3 2 4 4 8 9 9 9 10 12 12 12 13 16 20 25 32 35 36 35 35 34 34 35 35 34 32 31 30 29 29 30 30 31 33 35 36 35 35 35 35 34 35 34 34 34 34 35 36 37 39 41 42 42 40 38 37 36 36 35 35 35 33 31 30 29 29 29 29 27 26 27 27 26 23 19 19 18 19 19 15 14 15 13 14 14 12
1 6 11 10 8 6 5 5 4 1 3 6 5 4 7 9 4 6 10 13 14 16 17 18 17 21 29 36 39 39 37 35 34 35 35 35 34 33 32 31 30 29 30 30 31 33 36 37 36 36 36 35 35 35 35 35 36 36 36 37 38 40 40 40 40 39 38 37 37 36 36 34 32 30 28 28 27 27 27 26 25 25 26 29 27 23 23 21 19 20 18 17 16 15 15 13 12
2 7 9 7 5 4 2 2 2 1 4 10 6 7 6 10 4 6 6 8 13 15 14 16 19 22 29 35 39 40 41 39 37 37 37 37 36 35 34 33 32 31 31 31 31 32 35 37 37 37 36 36 35 35 35 36 37 38 38 38 38 39 39 39 39 39 38 38 38 36 36 35 32 30 28 28 27 26 25 24 23 23 24 27 27 25 26 25 23 22 20 19 18 15 15 14 14
10 9 9 7 4 3 2 1 1 3 7 7 6 10 6 9 4 7 7 7 11 13 10 12 17 22 28 34 37 37 38 39 40 40 39 39 39 37 36 36 36 35 33 32 33 34 35 37 38 38 37 37 36 36 36 37 38 39 39 39 39 39 39 39 38 39 38 38 38 36 36 36 33 31 29 28 27 26 24 22 21 22 22 24 26 26 27 26 26 26 23 23 21 17 17 18 17
11 8 8 7 2 2 1 1 2 5 7 1 4 8 9 10 4 5 6 5 6 9 9 10 13 18 26 34 38 37 35 34 35 38 40 40 40 38 36 37 37 36 35 35 35 36 37 38 39 39 39 39 38 37 36 37 39 39 39 40 41 40 39 39 39 39 38 37 36 35 35 35 33 31 30 29 28 26 24 22 21 21 21 23 24 25 26 25 25 27 26 26 25 20 19 19 20
6 6 9 7 3 3 3 3 3 6 5 2 1 3 7 13 8 3 5 8 9 9 9 12 14 15 21 30 35 35 34 33 34 35 35 35 36 34 32 33 33 34 34 35 36 37 39 40 41 42 42 42 41 40 37 37 39 40 39 40 41 40 39 39 39 38 38 37 35 35 35 35 33 31 29 29 27 24 23 22 21 22 22 22 22 23 25 24 25 27 27 26 25 23 20 19 19
7 8 9 7 5 5 6 5 4 5 3 2 1 2 5 12 8 5 10 12 12 9 10 16 18 17 19 24 28 27 28 32 34 33 29 28 29 27 25 26 28 31 33 34 35 35 38 41 43 44 44 44 44 42 39 38 39 39 39 39 39 39 39 38 38 38 37 37 36 35 34 34 33 31 29 27 24 22 21 20 20 21 21 21 22 23 24 24 25 26 25 25 25 24 22 20 19
9 7 6 7 6 5 6 5 5 3 1 2 3 2 7 7 2 2 8 10 11 12 15 20 22 24 23 24 26 26 26 27 27 28 25 24 24 21 20 21 23 27 30 32 33 33 34 38 42 44 45 46 46 44 42 39 39 39 38 38 37 37 38 37 37 37 37 36 35 34 33 33 32 30 28 25 22 20 20 19 19 20 21 22 23 24 24 24 24 24 24 24 25 25 25 22 21
6 3 3 6 5 3 1 1 1 1 1 3 5 4 6 4 6 9 9 9 12 16 18 19 23 25 23 23 26 27 26 23 21 22 22 22 21 19 19 19 19 21 25 28 31 31 32 33 36 40 42 44 45 44 43 40 38 38 38 37 36 36 37 37 36 36 36 34 34 33 32 31 30 29 26 23 21 21 20 19 19 20 22 23 23 24 24 24 24 24 26 27 27 27 26 23 22
5 4 5 3 2 3 2 1 2 1 4 4 5 6 6 4 9 12 13 13 12 12 12 14 18 19 18 24 28 28 28 25 23 24 23 23 23 23 24 22 19 19 20 23 27 29 30 30 32 35 37 40 42 43 42 39 37 37 37 36 36 36 36 36 35 34 34 32 32 31 30 29 28 27 25 23 22 22 21 20 19 20 22 23 23 23 23 23 23 23 25 27 27 26 24 22 22
5 7 7 5 4 2 2 3 2 4 7 3 5 9 7 3 5 5 9 14 15 13 11 9 10 11 14 22 28 29 29 28 28 29 28 27 25 25 28 27 23 19 18 19 22 25 27 29 30 31 33 36 38 39 39 37 36 35 36 36 36 36 36 35 34 33 32 31 30 30 29 29 27 26 25 23 23 22 21 21 21 22 23 23 22 21 21 21 21 21 23 24 24 24 24 22 23
3 7 10 7 3 5 6 5 4 5 6 3 4 7 7 8 8 3 7 8 10 12 12 11 10 10 14 21 25 24 24 25 26 27 27 26 24 25 28 30 27 23 20 18 18 21 23 25 26 27 29 31 32 34 35 35 35 34 35 35 35 35 35 35 34 33 32 31 30 29 28 28 26 25 25 25 24 22 22 23 23 23 23 23 23 21 20 21 21 22 25 24 23 25 25 22 22
1 5 9 4 3 6 6 4 2 4 5 5 3 3 5 7 7 7 10 9 7 7 9 11 12 13 17 22 23 20 19 19 20 21 23 23 23 25 26 29 30 25 21 18 17 18 19 20 22 22 24 26 29 31 33 34 35 34 34 34 35 35 34 34 33 32 31 31 30 28 28 27 25 25 25 26 25 24 24 24 24 24 24 23 23 21 20 21 21 23 25 25 25 26 26 22 21
5 8 11 7 3 2 2 3 2 2 5 5 4 5 6 3 4 8 13 13 12 10 8 9 11 13 16 19 20 19 17 17 18 19 21 23 23 23 24 26 28 25 20 18 16 16 17 17 18 19 20 23 26 29 31 33 34 34 35 35 35 35 34 33 32 31 31 31 29 28 27 26 26 27 27 26 26 26 25 24 24 25 25 25 23 22 21 22 22 23 25 27 29 27 24 21 22
8 8 11 11 8 5 4 7 5 2 3 3 2 6 6 2 4 7 10 11 13 12 10 9 10 11 13 15 17 17 17 19 20 19 21 23 22 22 23 25 26 23 19 16 15 14 15 16 17 18 19 21 24 26 28 30 31 32 33 33 33 33 32 31 31 30 30 29 28 28 27 27 28 27 26 26 27 26 25 25 25 25 26 25 24 23 25 25 24 24 25 27 27 24 22 23 24
Wind_Direction
320 318 331 321 336 329 330 325 261 79 285 122 95 147 132 109 16 165 154 151 149 159 175 134 151 154 149 46 92 58 37 114 21 337 107 135 153 153 152 152 150 146 143 145 144 143 141 142 146 144 142 137 121 116 108 101 94 101 111 106 99 94 92 83 86 90 90 92 91 90 89 89 92 95 93 91 91 91 92 91 92 90 90 92 91 92 92 91 92 93 93 94 95 96 96 95 91
311 308 330 325 341 334 340 333 292 138 228 132 120 4 104 146 202 181 162 158 99 146 166 145 155 164 259 30 147 129 107 128 32 76 122 145 151 152 154 152 150 147 144 144 146 145 145 149 149 147 149 142 128 116 102 100 95 95 100 103 103 97 89 76 82 92 89 86 87 89 89 90 91 95 93 89 92 94 94 92 90 91 92 97 96 96 97 92 91 93 94 95 96 97 96 95 91
310 293 307 314 333 350 14 309 276 185 252 108 113 100 133 183 190 162 142 118 89 144 155 147 161 166 286 176 180 241 102 170 167 118 136 149 153 155 153 153 152 148 144 141 144 148 150 156 154 152 154 145 132 117 99 93 88 84 86 104 108 101 93 81 78 86 92 95 97 97 93 91 95 101 98 97 101 97 95 93 93 94 95 100 100 98 99 97 94 94 95 98 98 98 96 93 88
315 283 265 288 302 8 16 262 323 259 320 84 86 118 183 210 167 129 101 101 128 143 147 154 166 186 228 259 173 250 115 165 169 136 148 154 159 157 153 155 153 148 146 138 142 149 154 159 157 156 155 149 137 120 104 94 97 90 86 109 114 108 104 94 82 80 90 100 103 102 98 93 97 105 104 103 101 96 97 100 100 97 94 97 101 101 101 102 99 96 95 99 100 97 94 89 86
335 305 220 248 265 56 54 154 128 266 43 77 58 111 197 208 149 123 110 123 137 136 152 166 168 188 210 319 193 325 123 171 178 155 154 161 164 158 154 156 152 150 148 138 140 149 158 162 160 158 157 153 144 127 113 103 110 110 101 109 114 117 115 108 97 83 83 92 99 104 104 101 102 105 105 103 99 97 98 99 100 98 97 96 102 105 103 104 103 100 98 100 99 95 92 89 87
15 55 144 182 121 100 176 172 179 178 58 11 45 74 171 178 148 128 129 128 137 140 158 174 181 170 186 231 201 191 150 167 186 173 161 166 166 159 156 156 153 154 151 141 139 147 159 166 163 159 160 157 151 139 123 112 120 126 117 109 112 119 120 115 108 95 89 97 105 106 104 103 103 105 105 101 99 101 99 98 100 101 101 100 103 105 103 104 104 103 99 98 96 94 92 89 85
57 92 121 133 98 57 225 173 169 120 81 331 26 54 106 156 149 136 145 146 151 164 168 183 189 168 166 177 192 201 181 173 180 179 168 167 165 161 158 156 156 157 154 145 139 145 157 167 168 162 162 161 159 149 131 118 122 134 130 117 111 115 123 122 116 111 112 118 116 110 108 109 109 108 106 103 103 104 103 104 106 107 106 104 104 103 101 101 100 100 97 95 94 93 91 86 80
51 109 184 173 107 346 224 156 169 82 81 296 316 31 91 149 160 154 161 164 165 173 177 187 189 194 165 146 166 197 196 191 180 175 169 167 166 164 159 158 159 160 157 149 142 141 151 166 170 164 165 166 166 159 144 131 121 133 141 125 108 107 121 127 125 126 130 134 126 115 114 116 112 107 107 107 106 105 105 109 108 108 108 105 104 101 99 98 96 96 95 94 92 89 85 81 76
40 98 169 192 171 157 175 195 162 67 161 215 239 218 138 167 173 169 168 161 155 163 173 182 189 205 143 151 159 184 206 196 176 172 170 168 168 166 161 162 162 163 160 154 147 140 150 165 170 167 167 168 168 168 158 149 130 137 149 133 115 108 115 126 130 130 132 137 132 122 119 122 115 109 108 106 103 103 105 106 102 100 100 99 100 98 96 94 93 92 92 91 87 82 77 74 72
28 64 124 185 191 193 185 198 145 144 191 207 249 213 179 176 181 183 173 161 154 161 171 179 188 200 150 161 162 180 201 181 169 171 172 170 169 167 163 164 164 167 165 159 152 143 150 163 170 171 171 170 168 174 172 167 153 151 158 139 122 116 112 118 126 127 130 132 130 124 123 124 119 114 111 107 102 101 100 98 96 95 95 95 96 96 94 91 89 89 88 85 80 76 72 68 65
19 35 64 202 197 213 181 189 173 130 139 235 259 216 196 176 176 184 179 166 157 156 168 179 191 188 175 167 175 194 190 177 172 171 172 172 170 168 165 165 167 171 170 164 158 150 150 160 170 175 177 176 174 179 181 181 174 159 162 144 125 122 114 114 120 120 125 127 127 124 123 122 118 116 114 110 104 100 98 96 95 94 94 92 93 94 93 91 89 88 85 82 78 73 69 65 62
10 38 258 220 204 224 137 264 218 347 274 219 210 175 191 174 171 185 188 182 167 164 173 185 191 178 178 155 190 197 185 180 174 172 173 173 172 169 166 167 170 175 177 171 165 158 155 160 169 176 181 182 182 185 185 186 185 162 158 148 130 126 120 117 120 120 122 125 128 127 125 123 119 118 114 111 106 101 98 97 96 94 94 93 93 93 93 92 91 89 86 83 79 73 70 67 65
78 154 245 215 218 15 127 258 340 309 264 154 54 120 175 171 183 191 184 182 173 175 185 190 184 177 184 131 189 192 186 182 174 174 176 174 174 172 169 171 173 179 182 178 174 166 162 164 170 176 179 185 189 190 189 189 193 175 160 154 139 130 125 123 124 127 128 129 135 136 132 127 123 121 115 111 107 102 98 97 98 97 98 97 96 95 95 95 92 90 88 85 82 79 76 73 69
129 154 249 163 123 251 169 238 11 251 154 61 28 139 171 176 203 191 177 185 181 183 190 191 185 181 199 171 185 189 187 182 175 176 177 176 176 175 174 174 176 182 185 184 182 174 170 168 172 176 174 182 189 192 195 195 198 187 169 162 149 138 131 130 133 133 134 135 141 145 141 137 132 126 120 116 112 108 104 101 101 103 103 103 102 101 100 98 95 94 92 90 87 85 81 76 71
148 130 140 154 154 196 204 271 46 234 64 43 29 149 178 205 215 189 191 200 186 191 187 188 190 181 201 188 170 189 194 182 176 178 178 178 178 180 180 178 180 184 187 188 188 183 179 174 175 178 176 180 185 190 196 198 201 196 181 173 159 149 141 139 140 140 141 141 146 152 148 145 140 132 125 122 120 115 111 108 106 107 108 109 109 107 107 104 102 100 97 95 91 86 81 76 71
151 132 168 193 183 202 179 161 169 219 60 48 52 156 185 231 205 189 205 210 183 191 186 184 194 194 114 194 173 190 196 184 178 180 179 181 182 184 184 183 185 186 190 191 192 191 186 182 180 182 181 181 182 187 192 194 199 198 191 186 172 160 153 150 148 148 148 147 153 157 154 152 149 140 134 129 127 123 119 117 113 113 114 114 114 112 113 111 109 107 104 100 95 89 80 75 68
146 157 220 201 193 189 174 177 179 191 57 59 78 175 200 226 196 198 211 207 199 194 193 194 198 202 182 184 197 188 190 184 182 182 183 185 185 188 188 188 189 190 193 193 196 196 193 190 184 187 187 184 183 186 189 190 192 193 194 193 183 170 164 162 158 157 154 154 158 162 162 161 160 153 146 142 137 133 128 127 124 123 122 119 117 115 115 115 115 112 110 105 99 93 82 74 66
158 194 212 211 195 170 152 151 140 16 34 41 38 211 224 225 186 201 214 202 207 205 203 210 205 206 201 182 183 186 187 186 186 186 187 188 190 192 193 192 193 194 195 195 198 199 197 195 189 190 191 189 186 185 189 191 188 189 194 194 187 177 171 170 168 168 163 161 163 167 171 170 171 167 161 156 150 146 140 139 136 133 131 128 123 119 121 119 117 115 112 109 101 95 81 72 61
181 192 208 216 170 124 98 107 107 280 357 360 357 270 228 233 192 197 218 205 200 210 208 212 212 209 208 194 183 189 189 190 191 192 192 194 195 197 197 197 197 197 198 198 199 200 200 198 195 193 194 194 191 186 188 191 189 188 191 191 189 182 177 176 177 177 173 169 168 172 177 177 178 177 173 168 164 162 157 158 156 156 157 149 138 132 134 128 120 117 112 106 99 91 79 69 55
182 198 214 203 135 116 96 129 132 110 341 340 338 324 236 238 211 195 223 218 203 221 211 200 212 215 213 204 196 195 193 194 196 197 199 200 201 202 202 203 202 200 200 201 201 202 201 200 198 197 197 197 195 191 189 190 190 191 189 188 190 188 182 181 183 184 182 178 174 176 180 181 182 182 181 180 179 178 178 180 183 188 189 188 178 164 157 141 127 121 111 102 91 80 71 60 49
165 202 212 120 131 148 122 122 120 80 352 338 325 297 262 247 217 205 218 225 222 229 222 214 219 221 217 209 205 201 196 198 200 202 204 205 206 206 207 209 208 206 204 204 205 204 203 202 200 199 199 199 198 196 193 191 192 193 191 189 190 191 187 184 186 187 187 185 182 181 183 183 185 186 186 188 190 191 194 196 199 204 205 208 210 211 212 197 167 143 117 102 81 63 53 43 34
172 189 41 112 167 171 136 131 98 37 3 340 315 293 295 282 222 213 214 227 239 234 230 232 234 234 229 216 210 206 201 203 204 206 208 209 211 210 210 211 212 211 210 210 209 207 207 206 204 203 203 201 200 199 198 195 193 194 193 191 191 191 189 185 186 187 188 189 188 186 185 185 187 189 191 193 197 200 204 207 208 209 213 216 220 226 232 234 245 242 247 271 302 347 354 1 5
207 190 77 178 200 196 150 152 20 356 352 331 308 299 293 281 245 224 222 233 245 258 248 242 238 238 237 225 216 213 210 209 210 213 214 215 215 215 213 212 212 213 214 214 212 211 210 209 208 207 207 205 203 201 201 198 196 195 193 192 190 189 188 186 185 185 186 187 189 190 189 188 189 191 195 198 202 205 208 212 213 215 218 222 225 228 236 239 249 258 267 281 289 307 319 333 339
256 219 181 206 203 213 208 212 282 318 326 320 302 293 274 253 267 243 235 239 241 245 250 241 232 230 228 224 221 221 221 219 218 220 220 219 219 218 217 216 217 218 219 218 215 214 212 211 210 210 210 209 207 205 203 201 200 196 194 193 189 187 187 187 187 185 185 184 185 188 190 192 193 193 196 200 205 209 213 216 217 219 221 226 228 229 237 240 247 257 265 278 288 303 311 315 317
235 230 202 217 214 230 241 242 264 292 307 327 304 279 265 252 259 257 256 252 243 241 240 233 228 218 219 223 223 223 223 223 221 221 221 221 221 217 217 219 221 222 223 222 219 217 216 214 213 213 213 212 211 209 206 205 203 200 196 194 191 189 188 189 191 190 188 186 185 185 188 192 194 196 197 200 205 211 216 221 222 223 225 228 230 232 238 241 248 255 264 275 283 294 298 300 304
209 210 182 196 219 233 244 242 248 253 267 316 302 273 275 260 250 259 266 264 254 245 237 233 233 228 221 222 223 224 224 222 220 221 223 221 218 216 219 223 225 225 225 226 223 221 220 218 216 215 215 215 215 214 211 209 207 204 200 197 196 195 194 193 195 194 193 192 190 188 187 190 192 196 199 201 205 210 216 222 225 228 229 231 232 234 237 241 248 254 261 269 275 281 284 289 296
176 196 189 212 252 255 251 238 235 244 260 277 272 277 289 228 225 255 272 283 266 245 237 236 234 234 230 225 224 225 225 225 222 221 221 218 217 220 222 225 227 226 225 226 225 223 222 221 219 217 216 217 218 217 216 213 210 208 204 202 201 201 200 200 199 198 198 197 197 196 194 194 195 199 202 204 207 210 215 221 226 230 232 233 235 237 238 241 246 252 258 263 269 271 276 282 287
122 180 200 234 259 257 248 240 235 237 252 241 233 272 255 166 210 245 258 285 282 241 236 237 234 235 234 231 228 225 225 225 222 221 221 222 223 227 227 228 230 228 227 228 226 223 223 223 223 220 218 219 220 220 219 217 215 212 210 208 206 205 205 205 205 204 203 203 205 206 205 204 205 207 209 211 214 217 219 223 228 232 235 237 238 240 241 243 245 251 254 258 262 264 271 275 279
123 164 233 229 258 260 236 231 230 220 233 211 191 271 240 195 225 241 250 265 270 241 236 236 235 235 232 231 229 227 226 223 221 223 226 228 229 231 233 234 234 231 230 230 229 227 225 224 225 223 221 222 222 222 221 221 219 216 214 213 211 209 210 210 211 212 211 212 212 213 214 214 215 217 219 220 223 226 227 228 231 234 239 242 244 246 247 248 249 252 255 257 260 263 267 271 275
142 166 298 265 273 269 219 211 207 205 224 182 166 265 243 208 227 234 238 244 241 234 236 237 237 236 233 231 230 229 228 225 225 229 231 231 230 233 235 236 235 233 232 231 231 230 229 227 227 227 225 225 224 223 223 222 221 221 219 217 216 214 215 215 216 218 220 221 221 221 221 220 221 223 226 228 230 233 235 234 235 237 241 244 247 251 252 254 254 255 258 259 261 263 266 270 274
163 151 235 242 264 243 143 163 181 195 203 164 173 256 253 229 231 229 234 237 231 226 230 236 237 237 236 233 232 233 232 231 231 233 234 233 233 235 236 236 235 234 234 233 232 231 231 229 229 229 228 227 227 226 225 225 223 224 224 222 220 219 219 220 222 224 226 227 228 227 225 224 224 226 229 231 233 236 239 240 240 241 244 246 248 252 254 257 258 258 260 260 263 265 266 269 271
169 181 189 185 236 220 134 162 187 203 179 171 191 246 254 250 247 240 237 231 228 230 229 233 237 237 236 236 234 235 236 236 235 234 235 234 233 236 237 237 236 233 233 234 233 231 231 229 227 229 230 230 230 229 228 227 226 226 227 226 225 225 224 224 225 227 229 230 231 231 230 228 227 229 231 233 235 238 242 244 242 243 245 248 250 252 255 256 258 259 260 261 262 264 268 269 270
172 216 201 169 219 239 181 162 192 216 153 185 210 241 259 254 249 245 239 232 230 237 239 236 238 237 235 237 236 235 237 238 237 237 237 236 234 236 238 237 237 235 233 234 233 231 231 229 226 226 229 230 230 231 231 229 229 229 229 229 228 229 229 228 229 229 230 231 232 233 232 233 233 235 236 238 240 242 245 246 243 243 245 247 249 251 253 254 256 258 261 263 262 263 267 270 274
152 198 222 208 221 245 235 156 156 194 195 213 217 234 253 256 260 248 234 233 232 237 244 243 241 239 238 238 238 238 238 239 240 239 240 240 238 238 239 238 236 235 233 232 232 231 231 231 228 225 227 230 231 231 232 231 232 232 232 232 231 231 232 232 232 232 233 233 234 235 235 237 239 241 243 244 245 245 245 244 242 242 244 247 249 251 253 254 256 258 259 263 266 267 269 271 275
163 186 206 216 218 241 250 229 120 170 209 230 221 228 247 252 257 255 249 243 237 239 244 246 248 246 243 242 242 243 243 244 245 243 242 242 241 240 240 238 235 234 233 231 231 230 231 230 229 226 226 229 232 232 232 232 233 234 233 233 233 232 232 234 234 235 235 235 235 236 237 238 241 243 245 247 247 246 245 244 244 244 244 246 248 250 253 256 259 263 265 268 271 272 272 270 270
183 192 201 211 210 223 244 237 122 155 226 239 236 240 248 251 251 252 253 244 237 245 248 248 252 251 247 246 246 245 246 249 249 245 243 242 242 241 240 239 236 234 233 233 232 230 230 229 228 227 225 226 231 231 231 231 232 232 232 232 233 232 231 233 235 235 236 236 236 238 239 240 242 243 245 247 246 245 244 245 248 249 249 249 250 251 255 259 262 264 267 270 273 276 278 276 271
194 194 206 217 221 225 225 181 119 132 250 249 244 249 255 255 252 250 251 240 228 242 248 247 249 250 251 251 250 249 251 255 256 250 244 242 242 241 241 240 239 237 236 236 234 231 230 229 229 228 225 225 228 230 229 230 230 230 230 231 232 231 232 233 234 236 236 237 238 239 241 241 243 245 245 246 246 245 244 245 248 250 251 253 254 256 259 261 260 262 263 264 267 269 277 284 273
196 193 206 216 224 236 231 181 138 131 238 258 252 260 263 260 258 253 253 248 238 241 245 247 248 249 250 252 253 255 258 260 261 257 249 244 242 241 241 241 241 240 238 238 237 235 234 233 231 229 228 228 229 230 231 231 230 231 231 232 233 233 234 235 236 237 238 240 240 241 243 244 245 247 247 247 245 244 244 245 248 248 250 254 256 256 257 258 259 263 267 267 268 262 259 268 269
195 193 206 219 209 232 247 221 193 160 226 266 272 271 268 265 263 253 248 251 251 245 244 250 252 250 250 253 256 258 261 263 262 260 255 249 246 244 243 242 242 242 242 241 240 240 238 237 235 231 229 230 230 231 232 233 232 232 234 235 237 237 238 240 241 241 241 242 243 244 246 246 247 249 249 248 246 245 244 245 249 249 248 250 253 257 257 257 260 263 266 269 270 265 259 257 260
200 192 200 215 182 202 235 203 164 170 227 283 291 284 273 269 265 254 244 241 247 250 249 253 254 253 253 256 260 261 262 264 263 261 257 255 253 250 247 244 243 243 242 241 240 240 239 238 237 233 231 231 232 232 232 234 235 236 237 239 240 241 242 244 246 247 245 243 243 244 245 245 247 248 248 247 246 246 247 246 249 251 250 250 252 257 258 256 257 257 261 267 266 269 270 265 257
206 205 205 208 190 207 227 71 109 209 210 255 289 286 273 258 252 254 246 226 228 244 248 252 254 254 256 257 258 260 260 261 262 262 259 258 257 255 253 250 248 245 243 241 239 238 238 238 237 235 234 234 235 235 235 235 236 237 238 239 241 242 242 243 245 246 244 242 242 242 242 242 244 246 246 247 246 246 246 246 248 250 251 250 249 251 253 255 258 258 259 261 262 266 274 273 259
208 212 217 217 206 208 208 71 340 264 240 164 274 278 269 240 244 256 261 230 219 230 231 241 251 254 254 253 255 257 257 257 259 260 259 259 259 257 255 252 251 249 245 242 240 239 239 238 238 237 236 236 237 238 237 235 236 237 237 238 238 238 239 240 240 241 241 241 242 242 242 241 242 244 244 246 247 246 246 244 246 249 248 248 249 248 249 251 254 261 266 258 255 259 262 265 263
212 198 202 213 207 196 184 173 209 258 270 118 168 261 272 279 263 260 268 268 252 236 228 232 240 247 248 249 252 254 255 254 255 255 255 257 257 257 256 253 251 251 248 244 241 239 238 238 237 237 236 236 237 237 237 236 236 237 238 239 240 240 241 241 241 242 243 243 244 245 245 243 242 243 243 244 246 247 248 247 245 247 250 251 249 248 251 252 251 256 268 264 253 249 250 254 262
215 161 169 190 194 189 188 193 215 257 320 266 184 240 281 276 262 249 246 259 260 249 244 237 231 237 244 248 251 253 252 252 251 251 251 253 255 256 258 257 255 253 252 249 244 240 239 238 238 237 237 237 237 237 237 237 237 237 239 240 242 243 243 245 246 246 246 247 247 248 248 246 244 243 243 244 245 247 250 249 244 243 248 253 253 250 252 255 253 249 256 263 254 247 252 257 257
220 132 147 167 173 169 172 188 217 354 339 262 200 153 270 271 232 208 226 243 253 246 242 241 234 232 239 244 248 250 251 250 250 251 252 253 255 256 257 259 259 256 253 251 248 244 241 240 240 239 239 239 239 239 238 239 238 238 240 241 242 244 245 246 247 248 248 248 248 249 250 248 245 243 242 242 244 246 248 250 248 242 242 247 252 253 251 254 253 248 249 256 256 252 251 253 253
111 126 114 106 103 100 116 207 225 331 276 259 213 158 251 278 227 186 210 232 245 247 242 239 237 234 239 243 245 248 249 248 248 250 253 255 255 256 257 257 258 256 253 249 247 245 243 241 241 241 240 240 240 240 239 239 240 239 239 240 242 244 245 246 246 247 247 247 247 247 248 249 246 243 241 241 242 244 245 247 249 246 241 241 244 245 246 250 250 247 249 251 251 250 245 246 250
123 132 112 95 73 68 72 357 43 269 262 252 193 166 217 283 247 185 202 212 226 243 247 239 236 235 240 244 245 246 247 246 246 246 249 254 255 255 255 255 255 255 252 248 245 243 242 241 240 240 240 240 241 240 240 239 240 240 239 240 241 242 244 245 246 246 247 247 247 246 247 249 248 245 243 242 242 243 244 244 245 245 243 240 238 236 237 240 242 243 247 248 245 243 243 247 248
142 143 132 120 98 94 134 125 133 239 248 214 160 169 196 245 242 170 210 225 216 234 245 242 237 234 238 243 245 245 244 243 242 240 241 246 251 253 252 253 254 253 251 248 245 242 240 240 239 239 238 238 240 240 241 241 240 241 240 239 240 241 243 245 246 247 247 247 247 248 248 249 249 247 244 244 243 244 245 244 243 241 240 239 238 237 235 234 235 238 244 247 244 241 244 246 243
165 148 149 145 138 155 199 193 187 239 232 103 75 160 204 241 253 182 216 246 239 226 234 246 245 238 239 244 246 244 242 241 240 239 240 242 247 250 250 250 250 250 250 248 247 243 240 238 238 238 237 237 238 239 241 242 241 240 240 239 239 239 241 243 245 247 247 248 248 248 248 249 251 249 247 247 246 247 247 244 243 241 240 239 238 238 237 235 233 234 238 241 240 240 245 245 241
175 159 165 163 143 167 201 194 213 247 217 136 125 121 244 261 267 212 217 241 250 238 237 248 251 249 247 249 251 248 244 244 244 246 247 244 246 249 250 251 251 251 250 249 249 247 243 239 237 238 238 237 238 238 240 243 241 239 239 239 239 239 240 241 244 246 246 247 247 247 248 249 251 251 251 251 251 250 246 242 241 240 239 238 237 236 236 234 231 229 231 235 236 239 241 241 240
179 167 173 180 166 185 202 189 207 222 132 137 149 167 236 246 336 261 243 264 280 275 263 258 258 255 254 256 257 257 254 250 247 246 243 239 242 246 250 253 254 254 253 251 251 250 247 242 238 238 239 239 239 238 239 240 240 238 237 238 238 238 239 240 242 244 245 245 246 245 246 247 249 251 252 252 251 247 241 237 236 236 235 235 235 234 233 232 228 224 225 232 236 237 236 235 236
190 155 178 205 186 153 138 202 228 117 74 182 183 230 247 251 323 294 271 274 269 263 262 259 256 252 252 258 260 261 261 255 246 241 237 236 241 245 249 252 255 257 256 253 251 249 247 244 241 240 240 241 240 238 237 237 237 237 236 237 237 237 238 239 240 242 243 244 245 244 245 246 248 249 249 247 244 242 238 235 235 234 233 233 234 233 232 229 226 222 223 229 234 234 233 234 232
169 178 190 196 90 87 122 184 54 67 253 219 190 245 270 293 287 262 245 250 247 241 242 241 249 251 250 255 257 259 262 259 252 248 247 250 253 251 248 248 249 254 256 254 251 248 246 244 243 243 243 242 239 235 234 234 236 236 236 236 236 237 237 238 240 242 243 244 244 243 243 243 243 244 243 241 238 237 235 233 234 235 234 233 234 233 230 228 227 225 226 228 229 229 233 237 233
149 185 172 119 52 28 208 212 144 185 239 238 193 238 258 260 267 231 212 236 242 240 239 231 241 247 246 254 257 258 261 263 263 262 262 264 260 252 244 239 240 248 255 255 250 246 245 245 245 245 245 242 236 232 230 231 234 235 235 236 236 237 238 239 240 241 243 243 242 241 239 239 238 237 236 235 233 233 232 231 231 232 232 234 234 233 232 232 230 228 228 226 223 227 234 237 233
180 170 153 139 174 200 196 203 187 190 227 254 211 236 250 228 234 207 166 207 235 240 243 245 246 239 243 254 258 259 261 262 264 263 262 261 257 251 244 236 235 242 251 254 251 247 245 244 245 245 243 238 231 228 227 229 232 234 235 236 237 238 239 239 240 241 242 241 240 238 236 236 234 232 232 231 229 229 229 229 228 228 232 234 233 236 238 235 231 229 228 225 226 231 231 229 235
336 157 163 177 237 202 189 184 187 188 210 244 231 225 241 215 210 208 194 204 224 221 227 243 248 244 246 252 255 259 263 263 263 260 256 252 250 251 246 235 232 236 243 248 246 244 243 242 242 241 239 234 228 225 225 226 230 232 233 235 236 237 238 238 239 239 239 240 238 235 234 234 231 229 230 229 227 227 227 226 226 228 230 227 225 233 237 231 229 230 228 227 231 230 222 221 237
163 178 181 189 190 181 210 192 203 213 208 228 235 240 247 200 160 198 209 221 231 227 230 236 243 251 256 259 262 268 269 267 272 269 257 248 243 247 245 233 228 230 234 239 238 239 239 238 238 236 232 231 228 227 228 229 231 233 234 235 236 237 237 237 237 236 237 237 235 233 232 230 229 228 228 228 228 227 224 225 227 228 227 225 228 235 232 226 229 233 231 229 229 225 220 227 237
180 192 189 189 179 156 188 199 196 214 218 211 231 267 268 167 157 201 209 221 228 232 244 249 251 261 267 270 271 273 270 267 273 273 260 247 240 243 242 229 222 224 226 230 231 232 235 234 233 233 231 230 229 230 231 232 233 234 235 235 235 236 236 235 235 234 234 233 231 231 228 227 228 227 227 228 228 226 225 224 224 225 225 228 235 235 226 224 232 237 232 227 224 224 230 236 230